Theta_e
322 321 322 321 322 322 322 322 320 321 321 321 321 321 321 320 319 317 318 317 318 319 317 316 315 316 316 316 315 313 313 313 314 313 313 313 314 313 312 312 310 309 309 308 309 308 307 306 306 307 307 305 305 304 303 303 304 305 306 306 306 308 306 307 302 300 303 305 304 304 304 304 303 304 303 304 306 309 311 312 315 315 316 317 316
321 321 321 321 321 321 321 321 321 321 320 320 320 320 320 318 317 317 316 317 317 316 316 316 315 315 314 313 314 313 313 313 312 313 312 312 313 314 312 310 309 308 308 307 307 308 307 306 305 306 306 304 304 303 302 302 302 302 303 304 304 305 305 304 302 299 298 301 301 303 302 303 301 303 302 303 304 307 308 310 313 313 315 314 312
321 320 320 320 320 320 320 320 320 320 320 320 319 319 318 316 316 316 315 315 316 315 314 314 314 313 312 311 310 310 310 309 310 311 311 311 310 311 311 310 309 308 307 307 307 307 306 306 305 305 305 303 303 303 302 301 301 301 301 303 303 304 304 304 301 298 297 298 300 300 300 301 300 300 302 304 305 306 306 307 310 311 314 312 309
320 320 320 320 320 319 319 319 319 319 318 319 318 318 317 315 316 315 316 314 314 314 314 313 312 310 309 308 307 306 306 307 308 309 310 310 310 310 309 309 308 308 307 306 306 306 305 305 305 304 304 302 302 302 302 301 300 300 301 302 302 303 303 303 302 299 298 297 298 299 300 299 300 301 303 304 304 304 305 306 308 307 311 311 308
319 319 319 319 319 319 319 319 318 318 318 318 319 319 318 317 316 314 314 313 313 312 312 311 309 308 307 306 304 304 304 304 306 307 309 309 309 309 307 306 305 306 307 307 309 305 305 304 304 304 302 301 301 300 302 300 300 300 300 301 301 302 302 302 301 300 298 297 297 299 300 299 300 300 302 301 302 303 304 304 305 305 307 311 308
318 318 319 318 318 317 317 317 317 317 318 318 318 318 318 316 314 314 313 312 311 310 309 309 308 306 305 304 303 302 302 302 303 305 307 307 307 307 307 305 304 303 303 305 305 305 304 304 304 304 302 300 300 300 300 301 300 300 300 300 300 301 300 300 300 299 298 298 297 297 298 298 298 299 301 302 301 300 301 302 303 304 304 308 306
317 317 318 318 317 316 316 317 317 317 317 317 317 316 315 314 314 313 312 311 310 309 308 307 307 306 305 303 302 301 300 300 301 302 305 306 305 305 305 305 304 303 303 302 304 305 304 304 304 304 302 300 299 299 299 300 301 299 301 300 300 299 299 299 299 299 298 297 297 297 297 298 298 297 300 302 301 301 299 299 299 302 303 307 303
316 316 317 316 316 316 316 317 317 316 315 314 313 313 313 313 312 312 312 310 309 307 307 306 306 305 303 302 302 301 299 298 299 300 303 304 304 304 304 304 303 302 302 302 302 303 304 303 302 303 303 301 300 299 299 299 300 299 299 300 299 299 298 298 298 298 298 297 297 296 297 297 298 298 300 300 299 299 300 299 297 298 300 304 305
315 315 315 315 315 315 316 316 316 316 315 312 312 312 313 312 312 311 310 309 309 307 306 305 304 303 302 301 300 299 298 298 298 299 301 303 303 303 303 303 303 302 301 301 301 301 301 303 303 303 306 307 303 302 302 303 300 298 298 299 300 298 298 298 298 297 297 297 296 297 296 296 296 296 296 296 296 296 299 298 297 298 299 301 304
315 315 315 314 315 315 315 316 315 315 313 311 311 311 311 311 310 309 308 307 306 306 305 304 303 302 301 299 298 298 297 297 298 298 301 303 301 301 301 301 301 301 301 300 300 300 300 299 303 306 305 305 302 299 298 299 301 301 297 298 298 298 297 297 297 297 297 296 296 296 295 295 295 296 295 296 297 298 297 296 295 297 298 299 300
315 315 314 315 315 315 315 315 314 313 312 311 311 312 311 310 309 308 307 306 306 305 304 303 302 302 300 298 297 296 296 296 295 294 296 300 301 299 298 298 298 298 298 298 298 298 298 299 298 302 302 302 300 298 298 298 297 296 297 298 301 299 297 297 297 297 297 296 296 296 295 294 295 297 296 296 296 295 296 296 296 296 295 295 293
314 314 314 314 315 314 314 314 313 313 313 312 311 311 310 309 308 307 306 305 305 304 303 302 301 300 299 297 296 295 294 295 293 294 295 296 299 299 297 297 297 296 296 296 297 297 297 297 297 298 299 300 299 297 301 301 298 296 296 296 296 296 297 298 298 297 297 296 296 296 295 295 295 296 295 295 294 294 295 294 295 294 294 294 294
314 314 314 314 314 314 314 313 312 312 312 311 311 310 309 308 307 306 305 304 303 302 301 301 299 299 297 295 294 294 293 294 293 293 294 296 296 298 296 296 295 295 295 295 295 295 295 296 296 296 296 301 300 296 299 301 302 301 300 299 301 299 295 295 296 300 297 297 296 296 296 296 295 295 296 295 295 293 294 293 294 294 294 293 293
313 314 314 314 314 313 313 312 312 311 311 310 309 309 308 307 306 305 304 303 302 301 300 299 299 298 296 295 293 293 292 294 292 293 294 295 296 296 296 295 295 294 294 294 294 294 295 294 294 294 294 295 295 296 298 299 300 300 299 299 300 302 299 297 297 297 299 300 298 296 297 297 295 295 297 296 295 294 293 293 294 294 293 293 295
312 313 313 313 313 312 312 312 311 311 310 309 308 307 306 306 305 304 303 302 300 299 298 298 298 298 296 295 294 293 292 292 292 292 294 296 296 297 297 296 295 294 294 294 294 294 294 294 294 293 293 293 294 295 297 297 297 298 297 297 298 299 299 298 298 298 298 299 299 298 298 298 297 296 296 296 295 295 295 294 295 295 295 296 295
312 312 312 312 312 312 312 311 310 310 309 308 307 306 305 305 304 303 302 301 300 299 298 298 297 296 296 294 293 291 291 291 291 292 293 296 298 301 297 296 294 294 294 294 294 294 294 293 293 292 293 293 294 292 295 298 296 296 296 296 297 297 299 303 298 297 298 297 299 299 298 297 296 296 296 296 296 296 296 296 295 294 293 292 291
311 311 311 312 312 312 312 310 309 309 308 307 306 305 304 303 302 302 301 299 298 297 297 297 297 296 295 294 292 290 291 292 291 292 292 296 298 299 298 297 295 294 293 293 294 295 296 295 292 292 292 292 293 291 292 297 295 295 295 294 295 296 297 300 300 297 295 294 294 295 294 294 294 295 294 294 296 297 295 293 292 293 291 290 290
311 311 311 311 312 312 311 310 308 308 307 306 305 304 303 303 302 302 300 298 296 296 296 296 296 296 294 293 292 291 290 292 292 292 293 296 299 298 297 297 295 295 294 293 294 293 297 302 300 292 292 292 291 291 292 296 294 293 293 293 294 294 295 298 301 300 297 296 295 294 294 294 295 295 295 295 295 296 294 291 292 292 290 291 289
311 311 311 311 311 311 310 309 308 307 306 305 304 303 303 302 302 301 299 298 297 297 298 296 296 296 294 294 298 292 290 293 292 293 294 296 299 298 298 295 294 293 293 292 293 293 293 296 299 295 293 292 291 291 291 295 293 292 292 292 293 293 294 296 297 296 297 296 297 298 297 299 300 298 299 296 296 298 295 294 293 291 290 291 291
311 311 310 310 311 310 310 309 308 306 305 304 303 302 302 301 300 299 298 298 297 297 297 295 294 293 293 292 295 292 291 291 292 292 294 295 296 298 297 295 294 293 293 294 293 291 292 293 296 292 291 291 291 291 291 292 294 292 292 291 291 292 295 297 298 297 296 296 295 296 296 297 297 297 296 296 298 298 295 295 294 293 291 291 292
311 310 310 310 310 309 308 307 306 305 304 303 302 302 300 300 299 298 298 297 296 294 294 293 292 291 290 291 291 292 293 291 292 292 293 294 294 296 296 295 294 293 292 292 291 292 291 292 292 294 291 291 290 291 291 292 293 294 292 291 291 293 296 295 297 298 295 296 296 296 296 295 296 296 295 295 296 296 296 295 295 294 292 291 290
309 310 310 310 309 307 306 306 306 305 303 303 301 300 300 300 299 298 297 295 294 293 293 293 292 290 290 291 290 290 294 295 292 292 292 293 293 294 296 295 295 294 293 292 290 290 290 291 291 294 291 290 290 291 291 291 292 295 292 291 292 292 296 296 295 295 294 294 294 293 294 294 294 294 296 296 295 296 294 294 294 294 294 293 291
310 310 309 308 307 306 305 305 305 304 303 302 301 300 300 299 298 297 296 295 294 293 293 292 291 290 290 290 290 290 290 293 293 293 292 292 293 293 293 294 293 296 292 291 290 291 291 291 293 296 290 290 290 291 291 292 293 292 291 291 292 292 294 294 294 293 292 292 293 292 292 293 293 293 293 293 294 293 294 294 294 294 295 295 294
309 308 307 306 306 305 304 304 304 302 302 301 300 299 299 298 298 297 296 295 294 293 292 293 291 290 289 289 290 289 289 289 292 293 292 292 292 293 292 292 293 293 293 292 290 291 291 290 292 291 290 290 290 292 292 292 292 291 291 292 292 292 293 292 292 292 291 291 290 291 291 291 293 293 293 294 295 294 295 293 293 293 293 294 294
307 306 306 305 304 304 303 303 302 301 301 300 299 299 298 298 297 297 296 294 294 294 293 293 291 290 288 289 288 289 290 289 289 292 292 292 292 291 291 291 292 292 292 292 292 292 292 291 290 290 290 291 292 293 293 292 291 292 292 292 296 291 291 290 291 291 290 290 290 290 290 292 292 293 294 294 294 295 294 296 294 293 292 293 293
305 305 305 304 303 303 302 301 301 300 300 299 299 299 299 298 297 296 296 296 296 296 294 293 292 290 289 289 289 289 290 289 290 290 293 293 291 291 291 291 292 292 293 291 291 291 291 291 292 291 292 292 292 291 292 293 292 292 293 294 292 290 290 290 290 290 289 289 289 289 289 290 291 293 293 294 293 293 292 292 291 292 293 292 292
304 304 304 303 303 302 300 299 299 298 298 298 299 299 299 298 297 297 296 296 297 296 295 294 292 290 289 289 289 290 290 290 290 289 289 290 289 290 290 290 294 293 291 289 290 290 292 293 292 292 291 291 291 292 292 292 292 293 291 291 292 290 292 289 289 289 289 289 289 289 288 290 291 291 291 292 292 293 293 292 292 290 291 291 290
304 304 303 302 301 300 299 294 296 295 294 296 297 296 296 297 295 295 296 297 297 295 295 293 292 291 290 291 291 291 290 288 287 287 287 289 291 290 291 291 290 288 286 286 286 289 290 292 292 290 289 290 289 290 289 291 290 289 291 290 290 291 293 294 293 289 289 289 288 288 289 289 289 289 289 289 290 291 291 292 292 291 291 290 287
303 302 301 300 299 297 296 294 293 291 290 289 288 290 293 294 291 290 291 291 295 297 296 295 295 294 293 293 292 290 288 286 286 288 285 288 288 289 288 286 286 286 289 289 289 289 288 288 288 286 287 283 285 287 287 288 286 289 290 291 291 290 290 287 289 287 287 287 288 287 287 288 288 288 288 289 289 289 289 290 290 291 291 290 288
302 300 299 298 297 295 294 293 292 291 290 289 289 289 287 289 290 291 290 290 289 292 294 293 295 292 289 289 292 292 288 287 288 288 288 288 288 288 288 288 288 287 289 288 290 284 285 283 283 283 285 283 282 282 284 284 284 285 287 288 288 288 289 288 287 288 288 287 286 286 286 286 286 287 287 287 288 289 288 289 288 289 288 288 287
300 299 298 296 295 295 293 292 291 291 290 290 290 289 289 289 288 288 289 290 290 291 291 291 291 291 292 288 288 290 289 288 288 288 288 288 288 288 288 288 288 288 288 286 283 282 283 284 283 283 283 283 282 282 282 282 281 283 284 284 285 286 286 288 288 284 285 286 286 285 284 286 285 285 286 286 286 287 288 287 288 288 287 287 287
299 298 297 295 294 294 293 292 291 291 290 291 290 290 289 288 288 288 289 289 289 289 289 289 289 289 289 289 288 285 286 288 288 288 289 289 288 288 288 288 288 288 289 289 284 283 282 283 283 283 283 284 284 283 282 282 282 282 282 283 283 283 284 285 285 285 283 284 285 285 284 285 284 284 283 284 284 285 285 285 285 285 285 286 286
299 297 296 296 295 294 293 292 291 291 291 290 290 290 288 287 287 287 288 289 289 289 289 289 289 289 289 289 289 287 287 288 289 289 289 289 288 288 288 289 289 289 289 284 283 283 284 284 284 284 283 283 284 283 283 284 283 282 282 282 282 284 284 285 284 284 283 283 284 285 284 283 284 284 284 283 284 283 284 284 284 283 284 284 285
298 297 296 296 296 294 293 293 292 292 291 290 290 290 289 288 287 286 286 285 286 288 288 289 289 289 289 289 288 288 288 288 289 289 288 288 288 288 289 286 289 290 290 285 284 285 285 284 285 285 286 284 284 283 283 283 282 283 281 282 283 283 283 283 283 282 281 283 283 284 284 284 283 283 284 283 283 283 283 283 283 284 283 282 283
299 294 291 294 296 295 295 294 293 292 291 290 289 288 288 288 287 287 286 285 285 284 284 286 287 288 287 287 288 288 288 288 288 288 288 288 288 289 288 285 285 283 286 287 289 287 285 285 284 286 286 284 284 284 284 284 282 282 281 281 281 282 281 281 281 281 282 281 283 283 283 284 284 283 282 283 283 283 283 284 283 282 282 282 283
298 296 296 296 296 296 295 295 294 293 291 290 290 289 288 287 287 286 286 286 286 285 284 284 283 288 288 288 288 288 288 288 288 288 288 288 288 289 285 283 282 283 284 287 286 286 286 286 286 286 286 285 285 283 285 284 283 282 282 281 281 281 281 281 281 280 281 280 281 282 284 283 283 284 283 285 284 283 282 283 283 283 282 282 281
297 296 296 296 296 295 295 294 293 293 290 289 289 288 288 287 286 286 286 286 285 285 285 284 284 286 287 287 287 288 288 288 288 288 288 288 288 286 284 283 284 284 284 285 285 286 287 287 287 286 286 285 284 284 284 284 284 283 285 282 281 281 281 282 282 281 280 280 279 280 280 280 281 282 281 282 283 284 283 282 284 284 283 283 284
297 296 296 297 297 296 295 294 293 289 289 290 289 288 287 287 286 286 286 285 285 284 284 283 284 282 283 282 292 285 284 288 289 289 289 289 284 282 283 284 285 285 285 285 285 285 285 285 287 286 286 286 286 284 283 284 283 283 284 283 281 282 286 282 282 280 279 279 279 279 280 281 281 281 282 281 282 282 283 282 282 283 283 283 281
297 293 291 291 293 297 296 293 291 291 291 290 289 288 286 286 286 286 286 285 284 284 283 283 283 282 283 283 285 289 287 284 284 282 283 283 283 283 284 285 285 285 285 285 287 285 285 285 285 286 287 286 285 285 283 285 284 283 282 282 282 282 280 280 280 280 280 280 280 279 279 279 280 280 281 281 281 281 282 280 282 282 282 282 281
297 296 292 291 294 294 294 292 292 291 290 290 289 288 287 286 287 286 286 285 285 284 283 283 283 284 284 284 283 286 283 282 282 283 283 284 286 285 285 286 286 286 286 286 285 285 286 285 285 286 286 286 286 285 284 284 284 283 283 282 281 281 281 279 280 281 282 280 281 280 280 279 279 280 280 280 280 281 281 281 282 282 282 281 281
297 297 291 292 293 295 293 293 292 292 291 290 289 289 288 287 287 286 287 286 285 285 285 284 284 284 286 287 287 287 285 284 284 285 285 285 285 286 286 286 286 286 285 286 286 286 286 285 285 286 285 285 284 284 285 283 283 283 282 282 281 282 280 280 279 280 281 280 280 280 280 279 279 280 280 280 284 282 281 281 280 281 282 282 281
297 295 295 294 293 295 294 293 293 291 291 290 290 290 287 287 288 288 287 287 286 286 285 286 286 286 288 288 288 288 287 285 285 286 287 286 287 286 287 287 287 287 286 285 286 287 286 286 285 284 284 285 284 284 284 284 283 282 282 281 282 281 281 281 280 280 281 281 281 280 280 280 281 281 281 285 280 280 281 280 279 280 281 281 281
296 296 296 294 295 294 293 293 293 293 291 291 290 289 289 290 289 288 288 288 287 287 286 287 287 287 287 287 288 288 287 287 287 288 289 288 289 288 288 288 287 287 288 288 287 287 286 286 286 284 284 285 285 285 284 284 281 281 281 281 281 282 282 281 281 281 280 280 282 282 281 281 281 280 280 281 280 280 280 279 279 280 280 280 280
296 295 295 294 294 293 293 293 293 291 291 290 290 289 290 290 291 291 290 289 288 288 288 288 287 288 287 287 287 287 288 288 288 289 289 288 288 288 288 288 287 287 288 288 288 289 287 287 287 285 285 285 286 286 286 285 284 283 282 282 281 281 281 281 282 281 281 281 281 282 281 281 281 281 282 282 281 281 280 279 280 280 280 279 279
297 296 295 295 296 295 293 291 292 290 289 290 290 291 289 291 291 290 290 290 289 289 289 288 288 288 287 287 287 287 288 288 287 288 287 287 286 286 287 288 289 290 289 290 289 289 288 288 287 286 285 285 286 287 286 285 286 285 285 285 284 282 282 283 283 282 282 282 281 281 280 281 280 281 281 280 281 281 282 280 280 283 280 279 279
296 296 295 295 294 293 293 293 290 291 291 291 291 292 291 291 291 290 289 290 289 289 287 288 289 288 288 288 287 287 288 288 288 288 287 287 286 286 287 287 288 289 289 288 288 290 288 287 287 287 287 287 286 286 287 287 287 287 287 286 287 287 286 285 284 284 284 284 282 282 282 281 280 281 283 281 280 280 280 280 280 281 280 280 280
296 295 295 295 295 293 293 293 292 292 293 292 292 291 290 290 291 290 289 290 289 290 288 289 289 288 288 288 288 288 288 288 288 287 287 288 287 289 288 289 289 290 289 288 288 289 288 288 287 288 287 287 287 288 287 286 286 286 286 287 286 286 286 285 285 286 286 285 285 284 283 283 283 282 283 282 281 280 281 281 281 281 280 280 280
295 294 294 294 293 293 293 293 292 290 293 291 291 290 290 289 290 290 290 290 290 290 289 288 290 290 289 289 289 289 288 288 288 287 288 288 289 289 290 290 289 289 289 288 288 288 288 288 288 288 288 287 287 287 288 287 287 288 286 286 286 286 287 285 285 286 285 285 285 285 285 285 284 283 282 282 282 281 281 281 281 281 281 281 281
294 294 293 293 293 293 292 292 292 293 293 291 290 291 290 290 289 290 291 290 290 290 290 289 288 289 290 290 289 289 289 289 289 289 289 290 290 290 291 291 290 291 289 289 289 289 288 288 288 288 288 288 288 288 288 288 288 288 288 287 287 285 284 283 284 287 285 286 285 285 285 285 285 284 284 284 284 283 283 282 282 282 282 282 281
294 293 293 293 293 292 292 293 293 294 293 292 292 291 291 290 289 289 290 291 291 290 290 290 289 289 290 290 289 290 290 290 290 290 291 291 291 291 291 292 291 291 290 289 289 289 289 289 289 288 288 288 288 288 288 288 288 288 288 289 286 286 285 284 283 284 285 286 286 285 286 285 285 285 285 285 284 284 283 283 283 283 283 282 282
293 293 293 293 294 293 292 294 293 294 294 292 291 291 291 291 291 290 289 290 290 291 290 291 291 290 289 290 289 291 291 291 291 291 291 292 292 291 291 291 290 290 291 290 290 289 289 289 289 289 288 288 288 288 288 288 288 288 287 287 287 286 286 286 288 284 284 284 287 286 286 286 285 285 285 285 284 284 285 285 284 284 284 283 284
Wind_Speed
8 7 7 8 9 9 9 8 8 9 9 8 8 6 6 6 4 3 2 2 2 4 4 5 5 6 6 5 5 4 3 4 3 2 3 4 5 6 7 8 7 6 6 7 7 8 9 10 10 10 9 9 9 9 10 10 10 9 8 9 9 10 10 7 9 8 8 8 8 9 11 12 11 14 14 13 13 13 13 11 11 12 12 12 13
8 7 7 8 9 10 10 9 9 9 9 8 8 7 5 3 1 1 1 1 7 7 8 5 6 8 9 9 8 8 7 6 4 6 6 5 5 6 7 7 7 6 5 7 8 7 7 9 10 10 9 9 9 10 9 10 10 10 10 9 9 9 11 10 9 9 10 8 10 9 10 12 11 13 13 14 14 13 13 12 10 10 9 11 11
8 8 8 9 10 10 9 8 8 9 9 7 8 6 4 1 2 0 3 4 6 7 6 7 8 9 9 9 8 7 7 6 5 5 6 5 6 6 6 6 6 6 7 7 6 5 7 8 9 8 8 9 8 8 9 10 9 10 10 9 9 10 11 11 9 9 10 8 9 11 11 11 11 13 13 10 10 10 12 12 11 10 7 10 10
9 9 9 10 10 10 9 8 10 8 8 7 8 5 4 3 0 3 4 7 8 7 9 8 9 10 9 9 8 7 7 7 7 6 6 7 6 7 6 5 4 5 6 6 7 6 6 6 7 7 7 8 8 7 7 9 10 9 10 9 9 10 9 8 9 6 7 9 10 10 10 10 11 11 11 9 10 11 10 10 10 12 8 9 12
9 9 10 10 9 9 9 9 9 8 7 6 6 5 3 1 2 5 9 8 7 9 9 8 9 10 9 8 7 7 6 6 7 7 6 7 7 7 8 7 6 5 5 6 7 6 6 6 5 5 6 8 7 7 6 8 9 9 9 9 9 8 7 7 7 7 8 10 8 8 8 8 7 9 12 13 12 10 11 12 11 11 10 8 10
9 9 9 10 9 10 9 8 9 8 7 5 5 4 4 3 4 7 8 9 9 10 10 8 8 9 8 7 7 6 6 6 7 6 6 6 7 6 6 7 7 7 5 5 6 6 7 7 6 5 6 6 6 6 6 6 7 10 9 8 7 6 6 6 6 8 8 8 9 10 11 12 11 10 12 12 12 14 13 13 11 12 12 11 11
9 9 9 10 10 10 9 8 8 6 5 4 3 4 4 4 6 7 8 10 10 9 9 10 8 8 7 7 7 7 7 7 7 7 6 6 7 7 7 6 6 6 6 5 5 7 8 7 7 6 6 5 5 6 6 7 6 8 8 7 5 6 7 6 6 8 9 9 9 9 9 10 9 12 12 10 10 10 13 13 14 12 12 10 12
9 9 10 10 9 10 9 8 7 5 4 4 3 3 3 5 8 7 8 10 10 10 9 9 7 7 6 6 6 6 8 8 7 6 6 7 7 7 7 6 6 6 7 7 6 5 5 7 8 7 5 5 5 5 4 6 6 6 6 6 6 6 6 6 7 7 9 9 10 10 10 10 11 9 8 10 11 12 13 11 12 13 13 10 10
9 9 10 10 10 9 9 8 7 8 6 3 2 3 6 7 6 7 8 8 8 10 10 9 9 8 6 6 7 7 9 7 5 5 6 7 7 8 7 7 7 7 7 7 8 9 8 6 7 8 11 12 12 8 7 3 4 5 6 5 5 5 5 6 6 6 7 8 9 9 10 12 12 13 14 14 13 12 11 11 9 10 9 9 7
9 9 10 10 10 10 10 8 8 7 4 4 4 6 6 8 9 9 9 9 9 9 9 8 7 7 7 7 7 7 6 5 5 11 9 6 7 7 7 7 7 7 7 7 8 7 7 7 7 16 15 14 12 11 10 7 3 1 2 4 5 5 5 6 7 6 7 9 10 9 12 13 13 13 13 11 10 10 11 12 12 11 10 8 7
8 9 10 10 11 11 10 9 9 7 5 5 5 7 8 8 8 9 9 9 10 9 8 8 7 6 6 7 7 6 6 5 11 12 12 12 8 7 7 7 7 8 7 7 7 7 6 6 6 10 12 11 9 12 11 9 6 5 6 5 5 4 5 8 7 6 7 8 8 9 10 11 13 12 12 12 11 11 10 10 10 11 12 12 13
8 8 8 9 11 12 11 11 10 7 6 6 6 7 9 9 9 8 9 9 9 9 9 7 7 6 6 6 6 6 6 7 10 11 12 13 11 8 7 7 7 7 7 7 6 6 6 7 7 6 8 10 9 10 11 13 8 4 7 9 8 8 5 5 6 6 6 8 9 10 9 11 11 12 13 13 13 12 11 10 11 11 11 12 11
8 8 8 8 8 8 10 11 9 8 8 7 8 8 9 9 9 9 9 8 9 10 9 8 7 5 6 6 6 5 4 7 8 10 11 13 13 10 7 7 8 7 7 7 7 7 7 8 8 9 8 15 11 9 7 9 11 9 5 5 5 11 12 13 11 6 4 7 9 10 10 9 12 13 13 13 11 11 12 12 11 10 10 11 11
8 8 9 9 8 7 7 8 9 8 8 9 9 9 10 9 8 8 8 8 9 8 8 8 6 5 5 5 5 4 5 7 8 9 9 12 13 10 8 9 8 8 8 7 7 7 7 8 8 9 9 10 10 10 9 9 8 9 8 7 6 7 10 11 12 12 7 6 8 10 8 9 10 9 11 11 12 12 12 13 11 11 12 11 10
9 9 10 10 9 8 7 7 7 9 9 9 9 10 10 9 9 8 8 8 8 8 8 7 5 5 5 4 5 5 4 7 8 8 9 11 13 10 8 8 8 8 7 7 7 8 7 7 7 8 8 9 9 11 9 8 8 8 8 8 6 6 5 5 6 6 5 5 8 9 8 8 8 10 9 9 10 8 8 9 9 8 5 4 4
9 9 10 10 10 10 8 7 9 9 10 9 10 10 9 9 9 8 8 7 7 7 7 7 6 6 5 4 5 4 3 8 7 8 8 11 13 7 8 8 8 8 7 6 6 6 6 7 7 8 7 8 12 16 13 8 9 8 9 8 8 7 6 6 6 8 7 4 7 9 7 8 11 10 10 10 9 8 8 7 6 7 9 10 12
10 10 10 11 10 9 8 10 10 9 9 10 10 10 9 9 8 7 8 7 8 7 6 6 6 6 5 4 4 3 3 7 7 8 7 8 9 7 7 7 7 7 7 6 6 6 6 7 7 7 7 7 11 14 15 11 8 9 8 8 7 7 7 8 9 13 13 12 7 14 13 13 13 13 14 15 12 9 7 9 13 10 12 11 12
11 10 11 10 9 10 10 10 10 9 9 10 10 9 9 8 8 7 8 8 8 8 7 7 6 5 5 4 3 4 3 6 9 9 8 9 9 7 6 7 6 7 6 5 5 6 8 14 10 7 7 7 12 13 13 9 8 8 8 8 9 9 9 7 5 9 13 12 11 9 10 10 11 12 13 14 15 12 12 14 9 9 12 11 11
11 11 10 8 10 11 11 10 10 10 10 10 9 10 9 8 7 8 8 8 8 7 7 7 6 5 4 4 6 5 4 5 9 12 14 12 8 5 7 7 7 6 6 6 5 6 6 7 11 10 8 10 14 13 12 8 7 6 6 8 9 9 7 5 5 7 6 7 8 7 6 7 6 5 8 14 15 13 11 9 7 9 10 10 10
9 8 8 10 10 10 9 10 9 10 10 9 9 9 8 9 9 9 8 8 8 7 7 7 7 5 4 3 3 3 5 4 7 13 13 13 12 7 6 8 7 6 6 6 6 5 5 6 7 10 12 13 13 13 12 10 7 7 7 8 8 8 5 8 8 5 5 6 5 6 6 5 4 5 5 7 9 9 10 9 8 8 8 8 9
8 8 9 11 11 10 9 9 11 10 9 9 9 8 8 9 9 9 8 7 8 8 8 7 7 5 3 2 3 3 3 6 6 12 13 13 14 11 6 8 7 7 6 5 4 5 5 5 5 8 11 11 11 12 11 11 9 7 7 6 5 5 8 8 10 11 6 6 6 6 6 6 4 4 5 5 6 6 7 8 8 8 8 8 8
8 11 12 11 10 9 10 11 11 9 9 10 10 9 8 8 7 8 8 8 10 9 8 7 6 4 2 2 3 4 4 7 7 11 14 15 14 14 8 5 7 7 6 4 3 3 2 2 3 6 10 10 10 11 12 11 10 7 10 14 16 15 9 6 7 7 7 7 7 6 6 6 6 5 4 5 5 5 5 6 7 7 7 6 6
11 12 11 10 11 11 11 12 10 9 9 10 10 8 7 9 9 9 9 9 9 9 8 7 6 5 3 2 2 3 4 5 10 9 13 15 16 15 14 10 12 7 6 4 3 1 0 2 3 7 9 9 10 10 11 11 8 8 14 15 15 15 11 7 7 8 7 7 7 6 6 6 7 6 5 3 3 3 4 4 5 6 7 6 6
12 11 10 11 12 11 11 11 10 8 9 8 8 9 9 9 9 9 8 8 9 9 7 7 6 5 4 3 3 4 4 4 7 10 11 14 14 15 13 12 9 5 4 4 2 0 1 2 4 8 9 7 7 8 11 10 8 11 11 13 14 11 8 8 8 7 7 7 7 7 7 6 6 6 5 2 1 3 3 3 4 4 5 7 7
11 12 12 12 11 10 9 9 9 8 7 8 9 9 9 10 9 7 8 8 8 8 8 7 6 5 5 6 5 5 5 6 5 8 11 13 13 12 10 10 9 7 3 1 0 1 4 7 9 9 8 7 6 5 7 10 12 13 12 11 10 7 7 7 7 7 8 7 7 6 6 6 5 4 5 5 2 1 1 1 1 1 2 4 5
13 12 12 11 11 11 10 9 8 7 7 7 8 8 9 9 9 8 8 8 8 9 8 8 6 5 5 4 6 6 4 4 5 4 5 5 6 7 9 8 6 5 5 4 7 7 7 8 8 8 7 6 4 4 4 6 10 12 12 9 5 7 6 7 6 7 7 7 6 7 6 6 5 7 5 5 7 7 4 2 1 1 2 4 7
12 12 12 11 10 10 10 8 7 7 7 7 7 7 8 8 8 9 8 8 8 8 9 9 7 6 6 6 5 4 4 3 4 3 4 3 3 2 3 3 5 7 5 4 5 5 6 5 3 2 6 8 7 6 5 6 7 7 6 6 5 5 6 5 5 6 6 6 6 6 6 6 6 7 7 7 7 8 7 4 5 4 0 1 5
12 11 11 10 9 9 9 10 9 6 5 5 6 6 5 4 5 5 7 8 8 8 9 9 9 8 7 6 6 5 5 4 2 3 2 4 3 3 4 4 4 4 4 5 4 2 2 4 6 6 7 7 7 7 6 5 5 5 6 6 5 4 6 7 7 5 4 4 5 6 6 6 7 6 6 7 7 7 7 8 6 7 5 3 2
12 11 10 10 9 8 8 7 7 7 7 7 7 4 3 5 7 3 0 2 6 9 9 9 9 8 8 8 8 6 5 4 3 2 2 3 5 5 4 3 3 3 2 5 3 4 5 7 6 6 6 5 5 5 6 7 5 4 5 6 7 6 6 7 6 6 6 6 6 6 6 6 7 7 7 7 7 7 7 8 8 7 7 7 7
11 11 10 10 9 9 8 8 8 8 8 8 9 8 10 11 4 5 3 1 6 7 11 7 8 7 7 3 4 9 8 6 6 5 4 6 6 5 5 5 5 3 5 4 3 2 3 5 5 4 4 4 4 4 4 5 5 6 6 5 6 6 6 6 5 5 6 6 6 5 6 5 7 6 6 7 7 7 7 7 7 6 7 6 6
10 10 10 9 10 9 8 8 8 8 8 9 9 9 7 9 13 12 7 9 13 15 14 14 14 13 12 7 6 9 12 11 8 7 6 6 6 5 5 6 7 6 6 5 5 3 3 5 2 3 3 3 3 2 3 4 4 5 5 5 6 6 4 5 5 4 5 6 6 5 4 6 5 5 6 6 7 7 7 7 7 7 6 6 6
10 10 9 9 11 10 8 8 8 9 8 8 9 9 9 9 8 12 12 14 15 14 14 14 13 13 18 17 11 5 6 7 9 8 7 6 5 5 6 6 5 4 2 4 2 3 1 5 4 3 2 4 2 2 3 4 4 4 4 6 4 4 5 4 2 5 4 5 6 6 5 5 4 5 5 6 5 7 7 7 7 7 7 7 6
11 9 9 10 10 10 10 9 8 9 9 9 8 9 9 9 10 8 9 14 15 14 12 13 15 15 13 13 15 12 10 8 9 8 7 6 6 6 5 2 3 1 5 5 3 1 2 4 4 4 4 3 1 4 3 4 4 4 4 4 3 2 3 2 2 5 4 3 3 5 4 4 5 4 5 4 5 5 6 6 6 5 6 7 7
10 9 9 10 11 10 9 9 9 8 8 8 8 8 8 9 9 9 9 8 9 11 12 11 11 14 12 13 14 13 11 10 9 8 7 6 6 5 5 3 4 4 3 1 2 0 2 5 4 4 4 3 3 3 3 4 4 4 4 4 3 2 2 3 5 4 4 5 4 4 5 5 4 4 5 4 4 4 6 6 5 6 6 4 5
9 9 12 10 9 9 8 8 8 8 7 7 7 8 8 8 9 10 10 9 8 8 6 5 5 7 9 8 10 12 11 9 8 7 7 6 4 3 5 5 2 4 5 1 0 1 2 4 3 3 4 4 3 4 4 3 4 4 4 3 3 3 3 3 3 3 4 4 5 5 4 5 6 5 3 5 7 7 6 5 5 4 4 4 5
10 9 8 9 8 8 8 8 8 8 8 7 7 7 8 8 8 7 7 8 9 8 5 4 3 4 7 7 9 9 9 7 7 6 6 4 2 3 1 1 2 3 3 5 3 4 3 3 4 3 3 3 2 4 4 4 3 4 5 4 3 3 2 1 2 3 3 3 3 3 5 5 6 6 5 4 6 4 4 6 5 5 4 4 2
10 9 8 8 8 7 7 8 8 8 8 8 7 7 7 7 7 7 7 8 8 7 7 5 5 4 4 1 3 6 6 6 4 2 2 4 4 2 2 3 3 3 3 6 4 2 1 2 3 4 3 4 4 3 3 4 3 3 3 3 3 3 2 1 0 3 4 3 3 4 3 3 4 4 3 4 5 6 5 4 5 6 5 6 6
10 10 8 9 8 8 8 8 9 11 9 8 7 8 8 7 8 8 8 8 8 8 7 6 6 7 8 6 4 5 3 1 2 2 3 2 2 2 4 4 3 4 5 5 4 5 4 3 3 4 3 4 4 3 4 4 3 3 3 2 1 1 4 3 2 3 3 3 2 2 3 4 4 4 4 3 3 4 5 4 3 6 6 6 4
8 10 11 12 10 9 8 8 9 9 8 8 8 8 8 8 8 7 7 7 8 7 7 7 7 7 7 6 5 3 5 2 2 4 5 5 3 3 4 4 4 5 5 6 4 4 5 5 4 3 3 3 3 3 4 4 4 2 2 2 2 1 2 3 2 1 2 2 1 1 2 3 3 3 2 2 4 3 3 3 3 4 5 5 4
10 9 9 13 9 10 9 9 9 8 9 9 8 8 8 8 8 9 8 8 8 7 7 7 7 7 6 5 5 5 6 6 5 6 5 5 6 5 3 4 5 4 7 4 4 4 4 5 5 5 4 4 4 4 3 4 3 3 3 2 3 2 2 3 3 1 0 0 0 0 1 2 3 2 4 3 3 1 3 3 3 2 2 3 4
10 9 8 10 10 9 9 9 8 8 9 9 9 9 8 8 8 8 8 9 8 8 8 7 7 7 7 9 11 10 8 7 7 6 6 7 7 6 6 6 7 7 6 5 5 5 6 6 5 6 4 3 3 3 3 4 3 2 3 3 3 2 3 2 3 2 0 0 0 1 1 2 3 2 3 4 3 2 3 2 2 3 3 3 3
10 8 8 8 10 9 9 9 8 10 10 9 9 9 8 8 8 8 9 9 9 8 8 7 7 7 9 15 14 14 8 7 6 6 6 5 6 6 7 7 7 6 8 6 6 5 4 4 4 5 6 5 5 3 3 2 2 3 4 3 5 5 5 4 4 3 1 1 1 0 1 3 4 2 1 3 2 3 4 4 2 1 3 3 3
9 6 7 7 9 9 9 9 8 8 9 9 8 7 8 8 8 9 9 9 9 9 8 8 7 7 9 13 15 14 8 7 5 7 7 7 7 7 8 9 7 7 7 7 7 6 6 6 6 6 6 7 6 6 5 5 3 3 3 4 4 6 5 4 5 5 3 2 0 1 1 2 3 2 1 0 1 2 3 2 1 2 2 2 2
7 6 6 7 8 8 7 8 8 8 9 9 9 9 8 7 8 9 9 9 9 9 9 9 8 8 8 10 10 9 7 7 7 8 8 7 7 8 9 9 7 5 5 5 6 7 6 6 6 6 6 6 6 5 6 6 7 5 5 4 4 5 5 5 6 6 6 4 2 2 2 2 1 0 0 1 1 1 2 1 2 3 3 3 1
6 7 7 7 8 7 7 7 7 7 8 8 7 8 8 7 8 9 9 9 9 9 8 8 8 9 8 8 8 9 8 8 9 8 8 7 6 7 7 7 7 7 5 7 5 5 7 6 6 6 5 5 5 7 6 6 6 7 6 6 5 5 6 7 7 6 6 5 5 4 3 2 2 1 0 2 1 0 0 0 1 3 3 4 4
6 7 8 8 7 6 6 6 6 7 7 8 7 8 7 7 7 8 8 8 8 8 7 8 8 9 9 9 9 9 9 8 8 8 8 8 7 6 5 6 6 6 7 7 6 6 7 7 7 7 7 7 5 7 6 6 6 6 5 6 7 8 8 7 6 6 7 6 6 6 5 5 4 4 4 3 3 2 2 1 0 1 1 2 2
6 6 8 8 7 6 6 6 6 6 6 7 7 8 7 6 7 8 8 8 8 8 7 7 7 7 8 9 9 9 9 9 8 8 8 8 7 7 7 6 5 7 6 6 5 6 7 7 7 8 8 7 7 7 7 6 6 6 7 6 6 7 6 5 6 7 7 7 7 7 7 7 6 5 5 3 3 4 3 3 3 3 4 3 3
6 6 6 6 6 5 5 6 6 7 6 7 7 7 7 5 6 7 7 7 7 7 7 6 7 7 8 8 8 9 9 8 8 8 7 7 7 7 7 7 6 6 6 6 5 6 7 8 8 8 8 8 7 7 7 7 7 7 7 6 6 6 8 7 5 6 6 6 7 7 7 7 7 7 6 6 6 6 4 6 4 4 5 5 5
6 5 6 6 6 6 6 6 6 6 6 6 7 7 7 6 5 5 7 7 7 7 8 7 7 7 7 8 8 8 8 8 8 8 7 8 7 7 8 8 7 7 7 7 7 7 7 7 8 8 8 8 8 8 8 7 8 8 7 6 8 11 11 10 7 7 9 7 7 7 7 7 7 7 7 7 8 7 7 5 5 6 6 5 5
6 5 4 6 6 5 5 6 6 6 6 5 6 7 7 6 6 5 6 6 7 7 7 8 8 7 8 8 8 8 8 8 8 8 8 8 8 8 9 9 9 8 8 8 8 7 7 7 8 8 8 8 8 8 7 7 7 8 7 8 12 13 13 13 12 12 9 7 8 7 8 8 8 8 8 8 8 7 7 7 7 7 7 7 7
4 5 3 4 6 5 4 6 6 6 6 6 6 7 7 7 7 6 5 6 7 7 8 7 7 7 7 7 8 8 9 9 9 9 9 9 9 9 9 8 7 7 8 9 7 7 7 7 7 8 8 8 8 8 8 8 8 9 11 14 15 15 15 14 11 12 14 11 8 8 8 9 9 9 8 8 7 8 9 10 8 8 8 8 7
Wind_Direction
115 116 113 109 108 103 99 92 90 91 93 94 97 99 100 159 188 204 224 251 215 144 104 78 90 101 109 110 107 98 74 44 46 51 37 54 62 69 73 72 68 59 57 48 40 39 36 36 28 24 18 26 25 22 21 14 13 13 11 12 13 15 13 23 35 16 13 10 3 1 352 356 2 4 359 355 352 351 351 353 0 7 9 13 6
120 118 112 111 103 99 97 99 100 100 99 102 102 100 158 192 225 293 249 359 82 93 100 105 85 71 60 48 40 34 28 25 38 59 51 47 55 69 78 76 72 64 58 56 47 39 37 38 31 24 20 25 26 29 21 20 17 17 16 14 17 22 20 29 34 23 6 357 4 358 2 3 359 3 0 353 350 349 350 353 0 8 14 15 6
120 117 114 107 104 103 103 104 104 100 106 105 111 129 194 217 253 244 60 62 67 70 64 59 68 71 65 54 45 37 31 30 16 36 46 50 61 75 79 81 82 76 66 60 55 44 40 39 32 24 18 24 21 22 25 27 24 25 20 17 19 23 27 35 29 24 13 4 359 3 3 1 7 355 354 353 346 345 351 357 358 360 15 16 9
120 116 112 109 108 108 108 108 100 99 104 117 124 169 194 219 300 82 78 76 81 74 67 66 67 68 68 58 46 41 34 30 30 25 42 47 53 63 66 63 66 77 80 72 65 53 45 42 34 27 19 23 17 14 18 28 31 28 27 21 23 25 27 30 32 30 13 13 8 8 1 357 1 358 352 354 356 357 359 349 355 1 6 14 13
117 115 114 113 111 112 112 108 113 119 122 133 155 174 203 206 106 85 82 85 83 82 73 66 67 66 66 62 52 45 38 36 38 33 39 52 60 68 67 64 60 63 72 76 72 63 52 48 37 32 27 25 13 15 2 22 30 33 32 26 27 25 28 27 29 26 24 24 8 7 360 7 358 356 0 357 356 3 2 3 359 356 360 18 13
118 118 117 113 112 113 112 115 121 126 138 161 162 169 174 150 113 86 98 92 82 79 81 71 70 71 67 65 60 53 45 42 42 36 34 51 55 58 64 65 58 54 59 71 72 65 58 47 38 39 34 30 7 8 5 10 22 36 34 28 24 22 22 20 24 26 30 25 17 6 12 6 3 8 1 358 359 359 3 2 360 3 358 10 17
125 122 118 118 121 122 122 124 122 125 139 150 153 148 150 132 98 103 98 94 91 86 81 81 72 75 69 63 58 54 52 46 41 34 34 45 54 57 57 59 58 52 46 56 68 68 61 51 41 38 43 29 8 4 6 10 16 29 34 26 16 21 22 18 16 28 27 24 19 17 8 11 8 3 359 357 360 7 2 357 4 359 358 11 15
130 126 125 126 127 126 126 123 125 129 142 159 159 153 115 100 108 107 101 96 93 92 88 88 83 75 70 66 59 58 56 49 38 35 41 48 55 53 57 60 59 52 46 43 47 54 57 56 48 34 40 41 16 344 8 16 8 16 16 30 17 21 25 16 22 26 28 25 22 13 13 3 8 10 357 359 5 11 14 5 357 355 355 0 35
133 133 132 133 133 129 125 127 133 145 172 153 144 132 124 115 106 101 97 98 95 95 95 91 89 80 70 66 59 53 54 46 37 39 49 50 57 57 52 52 53 53 47 43 42 43 37 29 33 31 27 30 25 14 342 359 36 11 348 18 21 19 20 24 20 29 31 29 24 20 15 15 12 5 8 12 11 2 350 356 353 356 350 350 21
141 140 141 139 137 131 133 139 143 169 155 156 158 132 110 105 104 101 100 99 98 96 92 89 85 84 79 66 60 57 52 44 40 57 57 68 66 62 58 52 53 51 49 44 41 43 43 33 21 25 25 24 18 9 3 341 329 6 320 337 30 19 18 22 28 29 32 31 27 17 22 22 11 8 5 8 1 358 2 2 0 354 351 3 4
148 147 145 145 140 141 145 147 158 174 159 161 139 108 103 104 101 98 97 98 97 97 94 90 85 77 74 71 64 59 48 28 43 58 60 65 72 67 66 61 54 54 51 49 45 41 34 31 23 19 19 17 14 12 6 356 322 316 322 345 2 50 20 26 32 30 35 38 28 28 30 23 17 6 6 358 7 9 9 3 0 1 5 3 0
146 142 142 144 147 153 155 160 167 165 157 149 122 115 110 106 104 102 99 97 97 96 94 91 87 79 74 68 64 59 54 26 52 64 73 74 77 78 74 70 64 59 56 53 49 44 37 33 29 23 19 21 28 11 7 7 4 303 304 318 348 47 59 68 41 33 39 44 38 33 28 29 16 12 9 6 5 7 13 9 9 7 7 11 2
144 141 142 143 155 163 166 163 158 157 147 130 123 115 108 107 106 103 102 103 98 96 96 92 87 80 73 71 61 45 53 22 54 70 87 93 88 86 77 78 74 67 63 59 52 46 40 35 32 26 14 19 21 13 18 13 11 14 348 348 8 37 23 24 43 61 67 60 55 42 35 27 26 22 16 11 5 16 10 15 9 9 12 15 8
146 146 147 152 161 179 180 162 152 142 132 126 120 111 109 110 108 105 104 99 101 103 102 102 97 87 80 78 67 47 40 1 44 66 93 111 110 96 87 82 78 72 67 61 55 50 42 43 38 29 20 24 17 12 18 18 15 19 20 16 8 1 14 19 23 47 56 74 67 62 43 42 44 31 25 20 21 18 14 18 6 10 15 13 1
155 158 159 160 168 180 182 163 141 134 128 125 114 111 116 115 109 106 106 106 107 110 112 111 109 100 91 80 72 51 15 1 37 57 85 113 113 104 95 88 82 75 68 62 60 54 46 44 43 38 28 25 18 17 21 13 20 17 14 11 10 4 359 359 20 32 60 76 79 77 67 58 54 46 40 38 33 24 20 15 6 3 353 339 7
163 166 165 169 172 175 170 152 139 131 129 122 117 119 119 118 115 111 105 102 99 99 98 103 107 102 93 86 76 51 8 11 34 55 87 124 125 114 106 95 90 81 72 68 62 59 55 48 42 35 28 26 8 15 16 20 26 19 12 4 6 8 9 348 351 50 76 102 105 89 83 78 68 55 44 38 35 27 25 24 21 24 22 21 21
173 173 172 173 173 168 155 144 135 132 129 124 122 124 122 115 114 113 108 107 104 100 106 103 109 106 96 89 86 59 21 6 30 59 77 120 123 114 111 104 95 89 79 68 59 53 52 50 45 33 23 20 10 19 14 24 29 20 14 10 10 15 9 353 1 32 51 69 90 114 101 77 64 55 44 36 34 25 24 30 26 15 27 23 17
179 175 174 175 164 149 143 137 133 130 127 123 123 122 117 114 117 114 112 109 102 104 102 96 91 95 100 94 99 87 36 11 35 60 84 113 123 114 113 109 102 97 81 59 51 40 34 38 43 34 22 9 10 24 19 27 33 21 20 19 16 18 11 357 4 38 36 41 58 101 124 96 68 52 42 37 32 28 35 37 7 12 29 25 18
178 174 169 156 143 138 137 133 131 128 123 123 124 122 120 122 118 110 112 109 111 109 101 98 86 75 90 104 91 85 56 25 36 60 71 81 94 105 106 101 98 91 86 65 46 40 26 20 24 27 23 11 12 15 25 31 42 29 25 29 21 23 1 360 26 44 29 36 23 38 62 69 62 45 38 37 35 39 43 43 20 31 32 24 22
170 160 144 137 135 133 132 132 127 125 125 122 121 119 119 117 120 119 118 119 119 110 102 96 92 81 67 66 72 83 79 46 45 63 66 74 87 95 101 106 104 96 86 80 54 27 23 16 10 14 16 14 11 11 21 39 46 35 37 36 24 14 339 31 24 34 42 48 34 33 45 61 63 47 38 35 37 44 45 40 38 37 34 29 27
160 144 137 134 134 132 126 122 124 124 122 124 123 121 123 127 127 125 123 117 111 106 104 100 96 90 74 68 88 66 85 83 58 70 72 77 81 86 87 100 104 97 92 76 69 54 14 2 348 1 10 11 11 11 30 35 43 50 43 45 35 17 31 35 25 27 23 21 30 28 31 42 52 48 42 40 38 41 49 45 48 43 39 34 26
138 136 137 134 128 119 119 123 123 123 122 123 125 129 132 126 123 123 121 118 116 114 112 110 109 110 104 97 94 86 75 89 85 69 76 77 79 85 88 94 103 102 88 79 60 50 4 351 338 346 2 4 10 23 37 39 41 48 41 39 32 32 34 32 31 28 23 26 28 24 15 26 45 42 40 47 39 40 44 56 51 51 48 44 41
135 136 133 123 119 121 123 125 125 127 128 130 134 135 129 125 125 125 124 124 121 117 115 120 117 121 124 112 105 95 83 82 90 85 82 83 83 87 95 94 95 102 115 120 141 149 257 323 322 348 357 357 2 21 42 43 45 46 46 43 37 32 33 30 29 27 24 23 29 29 12 10 23 31 45 46 43 54 59 54 62 60 57 50 40
129 125 121 120 121 123 125 125 125 127 131 132 128 129 129 129 129 131 132 130 128 125 127 121 118 121 131 121 99 87 80 79 81 96 92 90 95 97 100 104 108 122 113 143 171 194 324 326 334 336 344 352 357 8 37 47 50 47 47 46 43 38 36 32 27 24 25 22 20 20 20 4 11 17 25 55 113 113 94 73 73 69 72 63 47
119 121 123 125 125 126 121 123 126 127 129 128 130 134 133 135 133 139 135 137 136 133 131 127 130 143 134 131 118 90 78 82 70 66 85 100 102 99 99 106 109 103 106 198 132 313 317 325 335 336 332 347 16 29 36 43 44 47 50 48 50 45 41 39 33 29 29 19 14 13 17 6 1 345 349 18 59 88 66 83 36 46 61 74 64
123 126 128 127 126 126 124 122 123 126 126 129 135 140 142 142 142 147 146 149 145 138 139 134 142 147 152 142 125 120 101 81 76 60 51 65 83 103 113 96 71 53 73 39 8 343 335 331 326 336 9 18 44 49 50 54 52 47 50 56 53 54 49 45 35 36 30 18 16 11 360 2 1 349 354 5 11 7 13 23 27 7 22 58 64
126 129 129 128 126 126 125 127 127 126 129 132 135 140 141 148 152 157 159 157 150 146 140 145 146 153 154 154 136 121 100 81 67 46 26 45 70 65 47 49 43 44 34 7 349 339 340 339 309 317 46 47 49 64 59 43 51 45 42 51 55 55 53 59 55 49 34 25 16 4 352 358 12 17 7 6 5 358 360 5 24 359 353 58 83
132 133 130 128 128 129 128 127 122 112 103 110 116 112 100 112 123 145 170 163 156 151 151 153 155 162 169 154 131 107 102 85 68 93 58 79 81 66 64 67 62 60 25 346 321 314 333 22 57 40 36 28 24 25 31 39 45 56 50 43 47 43 44 43 42 39 30 33 24 10 10 6 18 9 8 11 10 7 6 18 9 2 14 12 44
131 128 127 127 125 118 112 110 115 113 101 84 59 44 88 129 120 98 302 227 160 150 157 156 161 169 159 146 134 134 129 138 183 197 135 110 117 119 91 92 80 54 357 312 327 11 48 65 57 38 37 43 31 29 28 35 28 34 45 45 40 39 36 48 50 29 13 28 26 23 13 7 14 10 17 13 3 4 7 20 17 19 7 33 30
133 132 133 130 125 118 121 120 122 120 117 115 102 77 44 48 45 129 137 122 176 169 135 147 152 127 102 90 153 158 171 177 172 168 140 108 99 107 123 110 92 76 8 13 80 70 56 86 85 86 55 51 48 43 47 50 45 36 25 37 43 42 35 29 31 26 27 28 21 31 18 19 16 13 23 18 355 360 5 29 16 19 31 23 32
136 136 136 137 132 132 131 133 135 127 126 121 114 112 100 56 43 42 76 94 97 101 106 121 137 136 127 114 58 91 123 138 152 152 135 114 109 114 97 82 62 45 27 37 30 53 87 97 85 88 89 77 70 63 72 67 62 63 42 40 39 45 44 41 11 17 22 22 15 15 24 34 19 13 32 20 16 1 357 2 18 19 29 21 31
143 144 142 136 132 136 137 137 137 131 132 129 125 124 114 104 65 38 41 72 77 88 103 108 113 120 126 128 126 92 118 146 149 136 118 98 81 61 46 52 73 66 5 112 63 15 117 126 117 126 119 79 74 87 81 82 69 84 81 57 36 30 51 29 359 39 11 18 19 12 9 15 22 18 21 19 23 21 10 7 8 15 13 22 13
140 144 142 138 139 139 142 144 144 140 141 139 137 132 125 121 112 99 51 53 66 71 80 99 109 115 117 122 130 140 153 157 141 120 107 89 62 42 23 19 25 9 79 55 81 358 138 136 143 156 136 138 121 111 104 102 97 85 98 103 83 33 38 15 70 40 20 356 14 23 6 15 13 26 17 20 33 24 13 14 1 16 27 26 10
145 150 150 148 146 149 151 151 149 148 145 143 140 136 133 128 127 120 111 99 67 54 51 65 96 105 107 120 124 128 137 139 129 116 97 80 63 35 28 338 15 31 96 136 101 71 127 111 147 160 152 156 152 118 102 97 104 108 90 96 109 65 10 6 42 24 19 5 9 14 17 16 24 28 17 8 14 28 17 4 19 25 12 23 19
144 142 139 146 149 153 153 150 148 144 144 143 139 137 135 139 136 132 133 127 121 120 122 81 58 95 121 121 126 130 132 129 118 109 98 87 62 28 52 34 12 342 357 17 253 219 153 147 151 180 167 149 166 141 142 142 110 117 128 114 87 63 31 25 19 23 31 14 21 18 25 27 15 19 38 40 20 13 358 357 352 22 30 9 18
149 148 152 152 152 154 153 151 147 145 146 146 145 138 141 142 136 135 130 127 130 130 120 127 127 97 107 117 127 126 125 120 111 108 111 109 96 72 50 1 3 322 308 284 226 196 145 164 155 154 163 159 162 140 160 149 156 144 156 138 120 108 98 37 6 20 14 48 34 19 26 20 19 14 359 33 33 21 9 358 2 343 2 24 43
154 155 157 158 158 153 150 144 143 146 144 142 139 140 145 140 135 133 133 134 134 136 137 133 108 87 65 82 119 114 112 110 109 121 155 155 154 113 155 179 211 262 297 261 199 156 143 181 172 169 153 139 165 163 141 147 164 136 142 163 151 101 99 166 46 77 51 27 11 38 43 9 11 22 42 28 11 3 5 352 13 12 359 353 20
163 165 163 160 155 154 148 148 150 144 145 146 147 148 149 150 148 144 141 142 142 140 140 148 145 152 158 192 186 151 152 95 39 349 323 131 141 178 200 206 211 224 259 243 178 152 175 208 160 162 198 160 165 179 141 158 140 124 126 150 173 139 118 97 78 69 60 49 23 27 24 7 9 11 23 29 32 11 354 344 20 20 6 5 17
166 171 164 155 157 157 154 151 152 150 149 147 152 152 155 153 149 145 143 143 144 144 150 151 162 168 183 174 170 159 111 132 187 222 239 249 239 220 210 218 212 238 241 215 161 151 175 176 180 157 169 182 151 180 165 166 162 151 144 111 100 74 78 99 85 66 54 36 316 23 36 343 351 359 18 3 352 15 356 332 15 63 34 6 353
169 175 170 163 158 159 153 156 156 149 151 151 158 158 157 158 157 155 152 148 151 155 158 163 175 190 185 160 170 151 155 188 202 218 226 244 250 250 225 248 252 228 209 184 191 178 171 194 189 175 173 178 159 160 184 171 179 171 180 143 133 145 198 171 152 148 10 206 205 343 41 323 312 352 354 351 306 326 27 342 327 50 58 25 360
172 171 170 168 158 153 152 153 156 153 154 155 159 163 168 165 159 153 152 152 154 158 167 175 183 189 179 184 180 170 168 186 202 208 215 218 232 242 240 231 229 225 206 172 193 199 191 188 201 190 184 159 156 152 159 173 173 161 181 184 158 156 170 205 187 187 199 100 218 248 294 307 315 10 342 305 292 359 3 11 2 24 32 28 24
170 167 169 164 153 151 155 158 154 149 152 156 162 167 165 166 158 156 154 157 159 164 168 179 187 185 188 183 183 178 176 197 193 206 224 233 239 247 245 245 221 197 187 183 182 187 192 179 186 176 168 173 153 159 145 175 219 197 209 186 186 184 157 186 200 208 173 148 179 236 311 309 295 285 248 250 13 23 3 355 331 11 35 10 6
167 165 159 150 150 154 156 158 149 146 154 161 168 164 167 163 155 158 158 160 163 168 172 179 189 181 187 189 187 183 188 194 198 210 218 228 234 238 240 241 227 205 199 201 192 188 174 162 166 177 177 185 180 179 183 207 206 220 205 199 196 194 200 203 193 199 180 150 163 265 314 316 309 301 309 313 64 48 27 341 323 7 356 5 355
150 145 145 141 139 137 141 144 148 144 153 163 160 161 167 155 155 159 163 164 170 175 181 182 178 181 187 196 189 182 196 201 209 214 220 220 219 224 226 230 228 219 208 204 199 182 175 174 176 189 187 197 200 197 195 196 178 176 188 179 188 210 220 214 198 195 177 167 182 227 266 284 281 171 25 270 55 43 355 355 335 345 338 317 324
138 135 131 127 132 135 139 144 144 140 142 151 153 163 160 147 158 165 164 167 174 181 185 177 176 180 182 181 183 192 204 210 217 224 229 227 220 224 224 230 226 222 215 214 209 183 179 182 184 187 198 209 203 204 211 212 197 194 191 191 212 215 215 216 218 202 178 170 187 199 219 226 258 253 217 243 234 165 121 249 277 351 348 324 327
126 124 127 134 139 139 139 143 145 137 147 153 157 165 163 147 159 164 167 171 173 180 166 169 174 178 178 182 187 194 204 210 218 223 229 234 235 241 238 222 219 215 211 212 206 192 187 181 183 187 197 209 205 200 199 201 207 212 215 210 206 214 213 211 196 179 185 186 189 193 202 205 222 219 225 237 237 198 196 218 227 239 227 258 272
117 118 131 145 152 151 140 141 142 154 153 153 158 162 165 155 161 168 171 174 174 188 165 163 170 179 181 184 187 197 204 207 216 220 225 229 231 233 244 247 237 228 223 213 201 193 189 188 187 189 195 202 203 207 215 217 213 213 214 218 227 234 244 232 202 195 199 200 193 188 198 202 218 224 236 231 213 213 217 231 225 250 257 236 243
118 120 130 140 144 147 147 141 148 152 149 152 160 165 175 164 155 171 176 177 173 189 192 168 177 183 183 191 194 199 202 207 212 215 219 224 227 230 235 236 229 225 220 216 211 202 195 194 194 192 195 199 202 211 217 221 223 228 229 223 217 220 228 224 222 225 219 204 197 201 198 204 214 217 220 212 218 218 224 246 248 248 243 246 247
131 128 133 147 154 149 153 156 151 157 157 149 157 170 182 184 172 174 184 176 179 185 197 193 180 185 192 194 197 203 207 208 211 217 219 224 227 232 228 230 231 230 221 220 215 207 205 202 196 194 195 197 200 204 209 213 218 221 225 231 230 225 224 222 217 223 220 214 212 208 207 207 212 218 217 220 223 221 223 235 235 238 246 245 245
153 152 136 151 168 158 152 161 152 162 164 149 152 178 184 198 198 182 188 187 179 186 196 201 204 189 188 198 202 205 205 210 215 218 220 222 224 225 225 223 222 221 218 218 216 209 206 203 201 200 201 203 205 207 209 213 218 222 225 229 233 234 238 231 220 220 215 212 214 210 208 213 215 218 220 221 222 220 225 232 230 230 231 235 238
153 160 145 141 160 177 152 165 164 162 170 175 162 171 187 195 211 201 184 191 189 189 194 199 206 216 212 201 198 205 208 212 213 215 216 221 224 223 222 220 219 218 220 219 220 213 208 202 203 203 205 206 207 212 215 218 219 222 225 227 230 232 233 233 234 229 215 207 206 206 206 212 214 221 226 227 222 222 227 227 225 222 221 222 233